Morgantown, WV

2:53 AM EDT on April 24, 2018 (GMT -0400)
Morgantown Municipal-Hart

Weather History for KMGW - December, 2004

Change the Weather History Date:

Friday, December 31, 2004

  Actual Average Record
Temperature  
Mean Temperature 55 °F 32 °F  
Max Temperature 57 °F 39 °F 71 °F (1972)
Min Temperature 53 °F 24 °F 2 °F (1899)
Degree Days  
Heating Degree Days 10 33  
Month to date heating degree days 937  
Since 1 July heating degree days 1984  
Cooling Degree Days 0 0  
Month to date cooling degree days 0  
Year to date cooling degree days 814  
Growing Degree Days 5 (Base 50)    
Moisture  
Dew Point 49 °F    
Average Humidity 81    
Maximum Humidity 100    
Minimum Humidity 64    
Precipitation  
Precipitation 0.02 in 0.08 in 0.90 in (1911)
Month to date precipitation 2.91  
Year to date precipitation 41.83  
Sea Level Pressure  
Sea Level Pressure 30.26 in    
Wind  
Wind Speed 7 mph (SSW)    
Max Wind Speed 14 mph    
Max Gust Speed 29 mph    
Visibility 10 miles    
Events      
T = Trace of Precipitation, MM = Missing Value Source: NWS Daily Summary

Daily Weather History Graph

Daily Weather History Graph

Search for Another Location

Airport or City:

Astronomy

Dec. 31, 2004 Rise Set
Actual Time 7:40 AM EST 5:05 PM EST
Civil Twilight 7:10 AM EST 5:35 PM EST
Nautical Twilight 6:36 AM EST 6:09 PM EST
Astronomical Twilight 6:03 AM EST 6:42 PM EST
Moon 9:53 PM EST (12/31) 10:56 AM EST (12/31)
Length of Visible Light 10h 25m
Length of Day
9h 25m
Waning Gibbous, 78% of the Moon is Illuminated
Dec 31
Waning Gibbous
Jan 3
Last Quarter
Jan 10
New
Jan 17
First Quarter
Jan 25
Full

Hourly Weather History & Observations

Time (EST) Temp. Dew Point Humidity Pressure Visibility Wind Dir Wind Speed Gust Speed Precip Events Conditions
12:53 AM 53.1 °F 48.0 °F 83% 30.30 in 10.0 mi Variable 4.6 mph - N/A   Overcast
1:53 AM 54.0 °F 46.9 °F 77% 30.29 in 10.0 mi South 8.1 mph - N/A   Overcast
2:53 AM 54.0 °F 46.0 °F 75% 30.27 in 10.0 mi South 9.2 mph - N/A   Scattered Clouds
3:53 AM 53.1 °F 45.0 °F 74% 30.27 in 10.0 mi South 6.9 mph - N/A   Scattered Clouds
4:53 AM 53.1 °F 45.0 °F 74% 30.25 in 10.0 mi South 8.1 mph - N/A   Partly Cloudy
5:53 AM 54.0 °F 45.0 °F 72% 30.24 in 10.0 mi Variable 6.9 mph - N/A   Partly Cloudy
6:53 AM 53.1 °F 44.1 °F 71% 30.25 in 10.0 mi Variable 6.9 mph - N/A   Scattered Clouds
7:53 AM 53.1 °F 44.1 °F 71% 30.25 in 10.0 mi South 5.8 mph - N/A   Overcast
8:53 AM 55.0 °F 44.1 °F 67% 30.25 in 10.0 mi SSW 5.8 mph - N/A   Clear
9:53 AM 57.0 °F 45.0 °F 64% 30.25 in 10.0 mi SSW 9.2 mph 17.3 mph N/A   Mostly Cloudy
10:53 AM 57.9 °F 46.0 °F 65% 30.25 in 10.0 mi SW 13.8 mph 28.8 mph N/A   Overcast
11:53 AM 57.0 °F 46.9 °F 69% 30.22 in 10.0 mi SW 8.1 mph 19.6 mph N/A   Overcast
12:53 PM 55.0 °F 50.0 °F 83% 30.21 in 10.0 mi Variable 6.9 mph - 0.01 in   Overcast
1:53 PM 54.0 °F 51.1 °F 90% 30.22 in 10.0 mi SW 6.9 mph - 0.01 in   Overcast
2:53 PM 54.0 °F 51.1 °F 90% 30.21 in 10.0 mi SSW 6.9 mph - 0.00 in   Overcast
3:53 PM 55.0 °F 51.1 °F 86% 30.23 in 9.0 mi SW 10.4 mph - N/A   Overcast
4:53 PM 55.0 °F 52.0 °F 89% 30.24 in 10.0 mi Variable 6.9 mph - N/A   Overcast
5:53 PM 55.0 °F 52.0 °F 89% 30.25 in 10.0 mi SW 9.2 mph - N/A   Overcast
6:53 PM 55.0 °F 52.0 °F 89% 30.26 in 10.0 mi SSW 6.9 mph - N/A   Overcast
7:53 PM 55.9 °F 52.0 °F 87% 30.27 in 10.0 mi WSW 9.2 mph - N/A   Overcast
8:53 PM 55.9 °F 53.1 °F 90% 30.27 in 10.0 mi SW 9.2 mph - N/A   Overcast
9:53 PM 55.9 °F 54.0 °F 93% 30.28 in 10.0 mi SW 10.4 mph - N/A   Overcast
10:53 PM 55.0 °F 55.0 °F 100% 30.30 in 10.0 mi SW 6.9 mph - N/A   Overcast
11:53 PM 54.0 °F 54.0 °F 100% 30.30 in 10.0 mi SW 6.9 mph - N/A   Overcast